owner,sensor,date,latitude,longitude,vertical_datum,mass_concentration_of_oxygen_in_sea_water,qcFlag 
DISL,ioos:station:DISL:PPTA:1,2014-12-01T00:00:00Z,30.2791,-87.5561,1.342,8.17,1111122 
DISL,ioos:station:DISL:PPTA:1,2014-12-01T00:30:00Z,30.2791,-87.5561,1.348,8.08,1111122 
DISL,ioos:station:DISL:PPTA:1,2014-12-01T01:00:00Z,30.2791,-87.5561,1.367,8.17,1111122 
DISL,ioos:station:DISL:PPTA:1,2014-12-01T01:30:00Z,30.2791,-87.5561,1.352,8.21,1111122 
DISL,ioos:station:DISL:PPTA:1,2014-12-01T02:00:00Z,30.2791,-87.5561,1.348,8.04,1111122 
DISL,ioos:station:DISL:PPTA:1,2014-12-01T02:30:00Z,30.2791,-87.5561,1.347,8.27,1111122 
DISL,ioos:station:DISL:PPTA:1,2014-12-01T03:00:00Z,30.2791,-87.5561,1.34,8.28,1111122 
DISL,ioos:station:DISL:PPTA:1,2014-12-01T03:30:00Z,30.2791,-87.5561,1.325,8.29,1111122 
DISL,ioos:station:DISL:PPTA:1,2014-12-01T04:00:00Z,30.2791,-87.5561,1.312,8.24,1111122 
DISL,ioos:station:DISL:PPTA:1,2014-12-01T04:30:00Z,30.2791,-87.5561,1.328,8.66,1111122 
DISL,ioos:station:DISL:PPTA:1,2014-12-01T05:00:00Z,30.2791,-87.5561,1.321,8.52,1111122 
DISL,ioos:station:DISL:PPTA:1,2014-12-01T05:30:00Z,30.2791,-87.5561,1.32,8.46,1111122 
DISL,ioos:station:DISL:PPTA:1,2014-12-01T06:00:00Z,30.2791,-87.5561,1.316,8.15,1111122 
DISL,ioos:station:DISL:PPTA:1,2014-12-01T06:30:00Z,30.2791,-87.5561,1.314,8.5,1111122 
DISL,ioos:station:DISL:PPTA:1,2014-12-01T07:00:00Z,30.2791,-87.5561,1.315,8.64,1111122 
DISL,ioos:station:DISL:PPTA:1,2014-12-01T07:30:00Z,30.2791,-87.5561,1.298,8.61,1111122 
DISL,ioos:station:DISL:PPTA:1,2014-12-01T08:00:00Z,30.2791,-87.5561,1.294,8.63,1111122 
DISL,ioos:station:DISL:PPTA:1,2014-12-01T08:30:00Z,30.2791,-87.5561,1.289,8.67,1111122 
DISL,ioos:station:DISL:PPTA:1,2014-12-01T09:00:00Z,30.2791,-87.5561,1.269,8.72,1111122 
DISL,ioos:station:DISL:PPTA:1,2014-12-01T09:30:00Z,30.2791,-87.5561,1.257,8.84,1111122 
DISL,ioos:station:DISL:PPTA:1,2014-12-01T10:00:00Z,30.2791,-87.5561,1.243,8.82,1111122 
DISL,ioos:station:DISL:PPTA:1,2014-12-01T10:30:00Z,30.2791,-87.5561,1.243,8.75,1111122 
DISL,ioos:station:DISL:PPTA:1,2014-12-01T11:00:00Z,30.2791,-87.5561,1.25,8.98,1111122 
DISL,ioos:station:DISL:PPTA:1,2014-12-01T11:30:00Z,30.2791,-87.5561,1.244,8.92,1111122 
DISL,ioos:station:DISL:PPTA:1,2014-12-01T12:00:00Z,30.2791,-87.5561,1.249,9.1,1111122 
DISL,ioos:station:DISL:PPTA:1,2014-12-01T12:30:00Z,30.2791,-87.5561,1.23,8.96,1111122 
DISL,ioos:station:DISL:PPTA:1,2014-12-01T13:00:00Z,30.2791,-87.5561,1.246,8.5,1111122 
DISL,ioos:station:DISL:PPTA:1,2014-12-01T13:30:00Z,30.2791,-87.5561,1.229,8.77,1111122 
DISL,ioos:station:DISL:PPTA:1,2014-12-01T14:00:00Z,30.2791,-87.5561,1.219,8.37,1111122 
DISL,ioos:station:DISL:PPTA:1,2014-12-01T14:30:00Z,30.2791,-87.5561,1.214,9.0,1111122 
DISL,ioos:station:DISL:PPTA:1,2014-12-01T15:00:00Z,30.2791,-87.5561,1.209,9.08,1111122 
DISL,ioos:station:DISL:PPTA:1,2014-12-01T15:30:00Z,30.2791,-87.5561,1.21,9.35,1111122 
DISL,ioos:station:DISL:PPTA:1,2014-12-01T16:00:00Z,30.2791,-87.5561,1.212,9.24,1111122 
DISL,ioos:station:DISL:PPTA:1,2014-12-01T16:30:00Z,30.2791,-87.5561,1.21,9.24,1111122 
DISL,ioos:station:DISL:PPTA:1,2014-12-01T17:00:00Z,30.2791,-87.5561,1.217,9.17,1111122 
DISL,ioos:station:DISL:PPTA:1,2014-12-01T17:30:00Z,30.2791,-87.5561,1.219,9.18,1111122 
DISL,ioos:station:DISL:PPTA:1,2014-12-01T18:00:00Z,30.2791,-87.5561,1.225,9.33,1111122 
DISL,ioos:station:DISL:PPTA:1,2014-12-01T18:30:00Z,30.2791,-87.5561,1.229,9.27,1111122 
DISL,ioos:station:DISL:PPTA:1,2014-12-01T19:00:00Z,30.2791,-87.5561,1.229,9.37,1111122 
DISL,ioos:station:DISL:PPTA:1,2014-12-01T19:30:00Z,30.2791,-87.5561,1.239,9.29,1111122 
DISL,ioos:station:DISL:PPTA:1,2014-12-01T20:00:00Z,30.2791,-87.5561,1.254,9.11,1111122 
DISL,ioos:station:DISL:PPTA:1,2014-12-01T20:30:00Z,30.2791,-87.5561,1.252,8.92,1111122 
DISL,ioos:station:DISL:PPTA:1,2014-12-01T21:00:00Z,30.2791,-87.5561,1.267,8.72,1111122 
DISL,ioos:station:DISL:PPTA:1,2014-12-01T21:30:00Z,30.2791,-87.5561,1.256,8.34,1111122 
DISL,ioos:station:DISL:PPTA:1,2014-12-01T22:00:00Z,30.2791,-87.5561,1.264,8.22,1111122 
DISL,ioos:station:DISL:PPTA:1,2014-12-01T22:30:00Z,30.2791,-87.5561,1.274,8.08,1111122 
DISL,ioos:station:DISL:PPTA:1,2014-12-01T23:00:00Z,30.2791,-87.5561,1.279,8.03,1111122 
DISL,ioos:station:DISL:PPTA:1,2014-12-01T23:30:00Z,30.2791,-87.5561,1.294,8.12,1111122 
DISL,ioos:station:DISL:PPTA:1,2014-12-02T00:00:00Z,30.2791,-87.5561,1.31,8.05,1111122 
DISL,ioos:station:DISL:PPTA:1,2014-12-02T00:30:00Z,30.2791,-87.5561,1.316,7.95,1111122 
DISL,ioos:station:DISL:PPTA:1,2014-12-02T01:00:00Z,30.2791,-87.5561,1.325,8.0,1111122 
DISL,ioos:station:DISL:PPTA:1,2014-12-02T01:30:00Z,30.2791,-87.5561,1.318,7.9,1111122 
DISL,ioos:station:DISL:PPTA:1,2014-12-02T02:00:00Z,30.2791,-87.5561,1.322,7.94,1111122 
DISL,ioos:station:DISL:PPTA:1,2014-12-02T02:30:00Z,30.2791,-87.5561,1.326,7.96,1111122 
DISL,ioos:station:DISL:PPTA:1,2014-12-02T03:00:00Z,30.2791,-87.5561,1.299,7.81,1111122 
DISL,ioos:station:DISL:PPTA:1,2014-12-02T03:30:00Z,30.2791,-87.5561,1.279,7.77,1111122 
DISL,ioos:station:DISL:PPTA:1,2014-12-02T04:00:00Z,30.2791,-87.5561,1.273,8.22,1111122 
DISL,ioos:station:DISL:PPTA:1,2014-12-02T04:30:00Z,30.2791,-87.5561,1.285,8.48,1111122 
DISL,ioos:station:DISL:PPTA:1,2014-12-02T05:00:00Z,30.2791,-87.5561,1.282,8.67,1111122 
DISL,ioos:station:DISL:PPTA:1,2014-12-02T05:30:00Z,30.2791,-87.5561,1.258,8.55,1111122 
DISL,ioos:station:DISL:PPTA:1,2014-12-02T06:00:00Z,30.2791,-87.5561,1.26,8.14,1111122 
DISL,ioos:station:DISL:PPTA:1,2014-12-02T06:30:00Z,30.2791,-87.5561,1.26,8.39,1111122 
DISL,ioos:station:DISL:PPTA:1,2014-12-02T07:00:00Z,30.2791,-87.5561,1.256,8.8,1111122 
DISL,ioos:station:DISL:PPTA:1,2014-12-02T07:30:00Z,30.2791,-87.5561,1.247,8.75,1111122 
DISL,ioos:station:DISL:PPTA:1,2014-12-02T08:00:00Z,30.2791,-87.5561,1.248,8.24,1111122 
DISL,ioos:station:DISL:PPTA:1,2014-12-02T08:30:00Z,30.2791,-87.5561,1.246,8.81,1111122 
DISL,ioos:station:DISL:PPTA:1,2014-12-02T09:00:00Z,30.2791,-87.5561,1.234,8.78,1111122 
DISL,ioos:station:DISL:PPTA:1,2014-12-02T09:30:00Z,30.2791,-87.5561,1.235,8.75,1111122 
DISL,ioos:station:DISL:PPTA:1,2014-12-02T10:00:00Z,30.2791,-87.5561,1.227,7.77,1111122 
DISL,ioos:station:DISL:PPTA:1,2014-12-02T10:30:00Z,30.2791,-87.5561,1.227,8.93,1111122 
DISL,ioos:station:DISL:PPTA:1,2014-12-02T11:00:00Z,30.2791,-87.5561,1.227,8.77,1111122 
DISL,ioos:station:DISL:PPTA:1,2014-12-02T11:30:00Z,30.2791,-87.5561,1.219,8.83,1111122 
DISL,ioos:station:DISL:PPTA:1,2014-12-02T12:00:00Z,30.2791,-87.5561,1.22,8.95,1111122 
DISL,ioos:station:DISL:PPTA:1,2014-12-02T12:30:00Z,30.2791,-87.5561,1.233,8.55,1111122 
DISL,ioos:station:DISL:PPTA:1,2014-12-02T13:00:00Z,30.2791,-87.5561,1.262,8.67,1111122 
DISL,ioos:station:DISL:PPTA:1,2014-12-02T13:30:00Z,30.2791,-87.5561,1.266,7.98,1111122 
DISL,ioos:station:DISL:PPTA:1,2014-12-02T14:00:00Z,30.2791,-87.5561,1.274,8.13,1111122 
DISL,ioos:station:DISL:PPTA:1,2014-12-02T14:30:00Z,30.2791,-87.5561,1.269,7.74,1111122 
DISL,ioos:station:DISL:PPTA:1,2014-12-02T15:00:00Z,30.2791,-87.5561,1.258,7.45,1111122 
DISL,ioos:station:DISL:PPTA:1,2014-12-02T15:30:00Z,30.2791,-87.5561,1.252,7.76,1111122 
DISL,ioos:station:DISL:PPTA:1,2014-12-02T16:00:00Z,30.2791,-87.5561,1.274,7.91,1111122 
DISL,ioos:station:DISL:PPTA:1,2014-12-02T16:30:00Z,30.2791,-87.5561,1.279,8.11,1111122 
DISL,ioos:station:DISL:PPTA:1,2014-12-02T17:00:00Z,30.2791,-87.5561,1.261,8.08,1111122 
DISL,ioos:station:DISL:PPTA:1,2014-12-02T17:30:00Z,30.2791,-87.5561,1.285,8.23,1111122 
DISL,ioos:station:DISL:PPTA:1,2014-12-02T18:00:00Z,30.2791,-87.5561,1.318,8.25,1111122 
DISL,ioos:station:DISL:PPTA:1,2014-12-02T18:30:00Z,30.2791,-87.5561,1.327,8.23,1111122 
DISL,ioos:station:DISL:PPTA:1,2014-12-02T19:00:00Z,30.2791,-87.5561,1.339,8.24,1111122 
DISL,ioos:station:DISL:PPTA:1,2014-12-02T19:30:00Z,30.2791,-87.5561,1.359,8.27,1111122 
DISL,ioos:station:DISL:PPTA:1,2014-12-02T20:00:00Z,30.2791,-87.5561,1.373,8.36,1111122 
DISL,ioos:station:DISL:PPTA:1,2014-12-02T20:30:00Z,30.2791,-87.5561,1.369,8.29,1111122 
DISL,ioos:station:DISL:PPTA:1,2014-12-02T21:00:00Z,30.2791,-87.5561,1.387,8.26,1111122 
DISL,ioos:station:DISL:PPTA:1,2014-12-02T21:30:00Z,30.2791,-87.5561,1.411,8.27,1111122 
DISL,ioos:station:DISL:PPTA:1,2014-12-02T22:00:00Z,30.2791,-87.5561,1.415,8.17,1111122 
DISL,ioos:station:DISL:PPTA:1,2014-12-02T22:30:00Z,30.2791,-87.5561,1.427,8.11,1111122 
DISL,ioos:station:DISL:PPTA:1,2014-12-02T23:00:00Z,30.2791,-87.5561,1.418,7.95,1111122 
DISL,ioos:station:DISL:PPTA:1,2014-12-02T23:30:00Z,30.2791,-87.5561,1.417,7.99,1111122 
DISL,ioos:station:DISL:PPTA:1,2014-12-03T00:00:00Z,30.2791,-87.5561,1.439,7.97,1111122 
DISL,ioos:station:DISL:PPTA:1,2014-12-03T00:30:00Z,30.2791,-87.5561,1.442,7.89,1111122 
DISL,ioos:station:DISL:PPTA:1,2014-12-03T01:00:00Z,30.2791,-87.5561,1.447,7.81,1111122 
DISL,ioos:station:DISL:PPTA:1,2014-12-03T01:30:00Z,30.2791,-87.5561,1.471,7.83,1111122 
DISL,ioos:station:DISL:PPTA:1,2014-12-03T02:00:00Z,30.2791,-87.5561,1.453,7.8,1111122 
DISL,ioos:station:DISL:PPTA:1,2014-12-03T02:30:00Z,30.2791,-87.5561,1.449,7.76,1111122 
DISL,ioos:station:DISL:PPTA:1,2014-12-03T03:00:00Z,30.2791,-87.5561,1.438,7.87,1111122 
DISL,ioos:station:DISL:PPTA:1,2014-12-03T03:30:00Z,30.2791,-87.5561,1.414,7.77,1111122 
DISL,ioos:station:DISL:PPTA:1,2014-12-03T04:00:00Z,30.2791,-87.5561,1.393,7.66,1111122 
DISL,ioos:station:DISL:PPTA:1,2014-12-03T04:30:00Z,30.2791,-87.5561,1.37,8.26,1111122 
DISL,ioos:station:DISL:PPTA:1,2014-12-03T05:00:00Z,30.2791,-87.5561,1.354,8.02,1111122 
DISL,ioos:station:DISL:PPTA:1,2014-12-03T05:30:00Z,30.2791,-87.5561,1.34,7.83,1111122 
DISL,ioos:station:DISL:PPTA:1,2014-12-03T06:00:00Z,30.2791,-87.5561,1.326,8.01,1111122 
DISL,ioos:station:DISL:PPTA:1,2014-12-03T06:30:00Z,30.2791,-87.5561,1.317,8.13,1111122 
DISL,ioos:station:DISL:PPTA:1,2014-12-03T07:00:00Z,30.2791,-87.5561,1.299,8.24,1111122 
DISL,ioos:station:DISL:PPTA:1,2014-12-03T07:30:00Z,30.2791,-87.5561,1.287,8.26,1111122 
DISL,ioos:station:DISL:PPTA:1,2014-12-03T08:00:00Z,30.2791,-87.5561,1.281,8.45,1111122 
DISL,ioos:station:DISL:PPTA:1,2014-12-03T08:30:00Z,30.2791,-87.5561,1.263,8.31,1111122 
DISL,ioos:station:DISL:PPTA:1,2014-12-03T09:00:00Z,30.2791,-87.5561,1.258,8.18,1111122 
DISL,ioos:station:DISL:PPTA:1,2014-12-03T09:30:00Z,30.2791,-87.5561,1.234,8.09,1111122 
DISL,ioos:station:DISL:PPTA:1,2014-12-03T10:00:00Z,30.2791,-87.5561,1.236,8.18,1111122 
DISL,ioos:station:DISL:PPTA:1,2014-12-03T10:30:00Z,30.2791,-87.5561,1.203,7.92,1111122 
DISL,ioos:station:DISL:PPTA:1,2014-12-03T11:00:00Z,30.2791,-87.5561,1.208,8.33,1111122 
DISL,ioos:station:DISL:PPTA:1,2014-12-03T11:30:00Z,30.2791,-87.5561,1.195,8.48,1111122 
DISL,ioos:station:DISL:PPTA:1,2014-12-03T12:00:00Z,30.2791,-87.5561,1.188,8.46,1111122 
DISL,ioos:station:DISL:PPTA:1,2014-12-03T12:30:00Z,30.2791,-87.5561,1.193,8.46,1111122 
DISL,ioos:station:DISL:PPTA:1,2014-12-03T13:00:00Z,30.2791,-87.5561,1.2,8.6,1111122 
DISL,ioos:station:DISL:PPTA:1,2014-12-03T13:30:00Z,30.2791,-87.5561,1.218,8.7,1111122 
DISL,ioos:station:DISL:PPTA:1,2014-12-03T14:00:00Z,30.2791,-87.5561,1.227,8.52,1111122 
DISL,ioos:station:DISL:PPTA:1,2014-12-03T14:30:00Z,30.2791,-87.5561,1.224,8.75,1111122 
DISL,ioos:station:DISL:PPTA:1,2014-12-03T15:00:00Z,30.2791,-87.5561,1.232,8.54,1111122 
DISL,ioos:station:DISL:PPTA:1,2014-12-03T15:30:00Z,30.2791,-87.5561,1.228,8.53,1111122 
DISL,ioos:station:DISL:PPTA:1,2014-12-03T16:00:00Z,30.2791,-87.5561,1.237,8.57,1111122 
DISL,ioos:station:DISL:PPTA:1,2014-12-03T16:30:00Z,30.2791,-87.5561,1.231,8.48,1111122 
DISL,ioos:station:DISL:PPTA:1,2014-12-03T17:00:00Z,30.2791,-87.5561,1.219,8.22,1111122 
DISL,ioos:station:DISL:PPTA:1,2014-12-03T17:30:00Z,30.2791,-87.5561,1.25,7.96,1111122 
DISL,ioos:station:DISL:PPTA:1,2014-12-03T18:00:00Z,30.2791,-87.5561,1.256,8.15,1111122 
DISL,ioos:station:DISL:PPTA:1,2014-12-03T18:30:00Z,30.2791,-87.5561,1.259,8.2,1111122 
DISL,ioos:station:DISL:PPTA:1,2014-12-03T19:00:00Z,30.2791,-87.5561,1.278,8.26,1111122 
DISL,ioos:station:DISL:PPTA:1,2014-12-03T19:30:00Z,30.2791,-87.5561,1.297,8.19,1111122 
DISL,ioos:station:DISL:PPTA:1,2014-12-03T20:00:00Z,30.2791,-87.5561,1.324,8.21,1111122 
DISL,ioos:station:DISL:PPTA:1,2014-12-03T20:30:00Z,30.2791,-87.5561,1.336,8.24,1111122 
DISL,ioos:station:DISL:PPTA:1,2014-12-03T21:00:00Z,30.2791,-87.5561,1.358,8.19,1111122 
DISL,ioos:station:DISL:PPTA:1,2014-12-03T21:30:00Z,30.2791,-87.5561,1.371,8.12,1111122 
DISL,ioos:station:DISL:PPTA:1,2014-12-03T22:00:00Z,30.2791,-87.5561,1.388,7.99,1111122 
DISL,ioos:station:DISL:PPTA:1,2014-12-03T22:30:00Z,30.2791,-87.5561,1.403,7.87,1111122 
DISL,ioos:station:DISL:PPTA:1,2014-12-03T23:00:00Z,30.2791,-87.5561,1.42,7.89,1111122 
DISL,ioos:station:DISL:PPTA:1,2014-12-03T23:30:00Z,30.2791,-87.5561,1.431,7.83,1111122 
DISL,ioos:station:DISL:PPTA:1,2014-12-04T00:00:00Z,30.2791,-87.5561,1.451,7.85,1111122 
DISL,ioos:station:DISL:PPTA:1,2014-12-04T00:30:00Z,30.2791,-87.5561,1.438,7.83,1111122 
DISL,ioos:station:DISL:PPTA:1,2014-12-04T01:00:00Z,30.2791,-87.5561,1.449,7.72,1111122 
DISL,ioos:station:DISL:PPTA:1,2014-12-04T01:30:00Z,30.2791,-87.5561,1.463,7.64,1111122 
DISL,ioos:station:DISL:PPTA:1,2014-12-04T02:00:00Z,30.2791,-87.5561,1.469,7.46,1111122 
DISL,ioos:station:DISL:PPTA:1,2014-12-04T02:30:00Z,30.2791,-87.5561,1.475,7.53,1111122 
DISL,ioos:station:DISL:PPTA:1,2014-12-04T03:00:00Z,30.2791,-87.5561,1.468,7.61,1111122 
DISL,ioos:station:DISL:PPTA:1,2014-12-04T03:30:00Z,30.2791,-87.5561,1.451,7.69,1111122 
DISL,ioos:station:DISL:PPTA:1,2014-12-04T04:00:00Z,30.2791,-87.5561,1.425,7.74,1111122 
DISL,ioos:station:DISL:PPTA:1,2014-12-04T04:30:00Z,30.2791,-87.5561,1.395,7.6,1111122 
DISL,ioos:station:DISL:PPTA:1,2014-12-04T05:00:00Z,30.2791,-87.5561,1.389,7.84,1111122 
DISL,ioos:station:DISL:PPTA:1,2014-12-04T05:30:00Z,30.2791,-87.5561,1.375,8.52,1111122 
DISL,ioos:station:DISL:PPTA:1,2014-12-04T06:00:00Z,30.2791,-87.5561,1.361,7.73,1111122 
DISL,ioos:station:DISL:PPTA:1,2014-12-04T06:30:00Z,30.2791,-87.5561,1.339,7.77,1111122 
DISL,ioos:station:DISL:PPTA:1,2014-12-04T07:00:00Z,30.2791,-87.5561,1.337,7.79,1111122 
DISL,ioos:station:DISL:PPTA:1,2014-12-04T07:30:00Z,30.2791,-87.5561,1.321,7.98,1111122 
DISL,ioos:station:DISL:PPTA:1,2014-12-04T08:00:00Z,30.2791,-87.5561,1.303,8.05,1111122 
DISL,ioos:station:DISL:PPTA:1,2014-12-04T08:30:00Z,30.2791,-87.5561,1.28,7.96,1111122 
DISL,ioos:station:DISL:PPTA:1,2014-12-04T09:00:00Z,30.2791,-87.5561,1.27,8.24,1111122 
DISL,ioos:station:DISL:PPTA:1,2014-12-04T09:30:00Z,30.2791,-87.5561,1.248,8.23,1111122 
DISL,ioos:station:DISL:PPTA:1,2014-12-04T10:00:00Z,30.2791,-87.5561,1.236,8.15,1111122 
DISL,ioos:station:DISL:PPTA:1,2014-12-04T10:30:00Z,30.2791,-87.5561,1.233,8.16,1111122 
DISL,ioos:station:DISL:PPTA:1,2014-12-04T11:00:00Z,30.2791,-87.5561,1.211,8.17,1111122 
DISL,ioos:station:DISL:PPTA:1,2014-12-04T11:30:00Z,30.2791,-87.5561,1.204,8.1,1111122 
DISL,ioos:station:DISL:PPTA:1,2014-12-04T12:00:00Z,30.2791,-87.5561,1.186,8.15,1111122 
DISL,ioos:station:DISL:PPTA:1,2014-12-04T12:30:00Z,30.2791,-87.5561,1.194,8.2,1111122 
DISL,ioos:station:DISL:PPTA:1,2014-12-04T13:00:00Z,30.2791,-87.5561,1.192,8.21,1111122 
DISL,ioos:station:DISL:PPTA:1,2014-12-04T13:30:00Z,30.2791,-87.5561,1.189,8.27,1111122 
DISL,ioos:station:DISL:PPTA:1,2014-12-04T14:00:00Z,30.2791,-87.5561,1.195,8.2,1111122 
DISL,ioos:station:DISL:PPTA:1,2014-12-04T14:30:00Z,30.2791,-87.5561,1.206,8.44,1111122 
DISL,ioos:station:DISL:PPTA:1,2014-12-04T15:00:00Z,30.2791,-87.5561,1.224,8.52,1111122 
DISL,ioos:station:DISL:PPTA:1,2014-12-04T15:30:00Z,30.2791,-87.5561,1.233,8.16,1111122 
DISL,ioos:station:DISL:PPTA:1,2014-12-04T16:00:00Z,30.2791,-87.5561,1.232,8.47,1111122 
DISL,ioos:station:DISL:PPTA:1,2014-12-04T16:30:00Z,30.2791,-87.5561,1.226,8.04,1111122 
DISL,ioos:station:DISL:PPTA:1,2014-12-04T17:00:00Z,30.2791,-87.5561,1.231,8.46,1111122 
DISL,ioos:station:DISL:PPTA:1,2014-12-04T17:30:00Z,30.2791,-87.5561,1.22,8.34,1111122 
DISL,ioos:station:DISL:PPTA:1,2014-12-04T18:00:00Z,30.2791,-87.5561,1.236,8.21,1111122 
DISL,ioos:station:DISL:PPTA:1,2014-12-04T18:30:00Z,30.2791,-87.5561,1.251,8.17,1111122 
DISL,ioos:station:DISL:PPTA:1,2014-12-04T19:00:00Z,30.2791,-87.5561,1.259,8.08,1111122 
DISL,ioos:station:DISL:PPTA:1,2014-12-04T19:30:00Z,30.2791,-87.5561,1.283,8.05,1111122 
DISL,ioos:station:DISL:PPTA:1,2014-12-04T20:00:00Z,30.2791,-87.5561,1.296,8.28,1111122 
DISL,ioos:station:DISL:PPTA:1,2014-12-04T20:30:00Z,30.2791,-87.5561,1.308,8.2,1111122 
DISL,ioos:station:DISL:PPTA:1,2014-12-04T21:00:00Z,30.2791,-87.5561,1.33,8.18,1111122 
DISL,ioos:station:DISL:PPTA:1,2014-12-04T21:30:00Z,30.2791,-87.5561,1.352,8.1,1111122 
DISL,ioos:station:DISL:PPTA:1,2014-12-04T22:00:00Z,30.2791,-87.5561,1.373,8.0,1111122 
DISL,ioos:station:DISL:PPTA:1,2014-12-04T22:30:00Z,30.2791,-87.5561,1.388,7.85,1111122 
DISL,ioos:station:DISL:PPTA:1,2014-12-04T23:00:00Z,30.2791,-87.5561,1.407,7.76,1111122 
DISL,ioos:station:DISL:PPTA:1,2014-12-04T23:30:00Z,30.2791,-87.5561,1.44,7.83,1111122 
DISL,ioos:station:DISL:PPTA:1,2014-12-05T00:00:00Z,30.2791,-87.5561,1.438,7.63,1111122 
DISL,ioos:station:DISL:PPTA:1,2014-12-05T00:30:00Z,30.2791,-87.5561,1.452,7.56,1111122 
DISL,ioos:station:DISL:PPTA:1,2014-12-05T01:00:00Z,30.2791,-87.5561,1.447,7.47,1111122 
DISL,ioos:station:DISL:PPTA:1,2014-12-05T01:30:00Z,30.2791,-87.5561,1.46,7.46,1111122 
DISL,ioos:station:DISL:PPTA:1,2014-12-05T02:00:00Z,30.2791,-87.5561,1.473,7.46,1111122 
DISL,ioos:station:DISL:PPTA:1,2014-12-05T02:30:00Z,30.2791,-87.5561,1.479,7.51,1111122 
DISL,ioos:station:DISL:PPTA:1,2014-12-05T03:00:00Z,30.2791,-87.5561,1.479,7.34,1111122 
DISL,ioos:station:DISL:PPTA:1,2014-12-05T03:30:00Z,30.2791,-87.5561,1.474,7.32,1111122 
DISL,ioos:station:DISL:PPTA:1,2014-12-05T04:00:00Z,30.2791,-87.5561,1.46,7.49,1111122 
DISL,ioos:station:DISL:PPTA:1,2014-12-05T04:30:00Z,30.2791,-87.5561,1.461,7.65,1111122 
DISL,ioos:station:DISL:PPTA:1,2014-12-05T05:00:00Z,30.2791,-87.5561,1.438,7.57,1111122 
DISL,ioos:station:DISL:PPTA:1,2014-12-05T05:30:00Z,30.2791,-87.5561,1.401,7.43,1111122 
DISL,ioos:station:DISL:PPTA:1,2014-12-05T06:00:00Z,30.2791,-87.5561,1.389,8.31,1111122 
DISL,ioos:station:DISL:PPTA:1,2014-12-05T06:30:00Z,30.2791,-87.5561,1.375,8.0,1111122 
DISL,ioos:station:DISL:PPTA:1,2014-12-05T07:00:00Z,30.2791,-87.5561,1.364,7.64,1111122 
DISL,ioos:station:DISL:PPTA:1,2014-12-05T07:30:00Z,30.2791,-87.5561,1.33,7.66,1111122 
DISL,ioos:station:DISL:PPTA:1,2014-12-05T08:00:00Z,30.2791,-87.5561,1.329,7.57,1111122 
DISL,ioos:station:DISL:PPTA:1,2014-12-05T08:30:00Z,30.2791,-87.5561,1.31,7.83,1111122 
DISL,ioos:station:DISL:PPTA:1,2014-12-05T09:00:00Z,30.2791,-87.5561,1.299,7.81,1111122 
DISL,ioos:station:DISL:PPTA:1,2014-12-05T09:30:00Z,30.2791,-87.5561,1.295,7.95,1111122 
DISL,ioos:station:DISL:PPTA:1,2014-12-05T10:00:00Z,30.2791,-87.5561,1.282,8.15,1111122 
DISL,ioos:station:DISL:PPTA:1,2014-12-05T10:30:00Z,30.2791,-87.5561,1.275,8.14,1111122 
DISL,ioos:station:DISL:PPTA:1,2014-12-05T11:00:00Z,30.2791,-87.5561,1.275,8.08,1111122 
DISL,ioos:station:DISL:PPTA:1,2014-12-05T11:30:00Z,30.2791,-87.5561,1.26,7.98,1111122 
DISL,ioos:station:DISL:PPTA:1,2014-12-05T12:00:00Z,30.2791,-87.5561,1.245,8.1,1111122 
DISL,ioos:station:DISL:PPTA:1,2014-12-05T12:30:00Z,30.2791,-87.5561,1.224,7.96,1111122 
DISL,ioos:station:DISL:PPTA:1,2014-12-05T13:00:00Z,30.2791,-87.5561,1.239,8.14,1111122 
DISL,ioos:station:DISL:PPTA:1,2014-12-05T13:30:00Z,30.2791,-87.5561,1.225,8.22,1111122 
DISL,ioos:station:DISL:PPTA:1,2014-12-05T14:00:00Z,30.2791,-87.5561,1.231,8.16,1111122 
DISL,ioos:station:DISL:PPTA:1,2014-12-05T14:30:00Z,30.2791,-87.5561,1.246,8.47,1111122 
DISL,ioos:station:DISL:PPTA:1,2014-12-05T15:00:00Z,30.2791,-87.5561,1.262,8.13,1111122 
DISL,ioos:station:DISL:PPTA:1,2014-12-05T15:30:00Z,30.2791,-87.5561,1.266,7.72,1111122 
DISL,ioos:station:DISL:PPTA:1,2014-12-05T16:00:00Z,30.2791,-87.5561,1.292,8.03,1111122 
DISL,ioos:station:DISL:PPTA:1,2014-12-05T16:30:00Z,30.2791,-87.5561,1.293,8.06,1111122 
DISL,ioos:station:DISL:PPTA:1,2014-12-05T17:00:00Z,30.2791,-87.5561,1.292,8.27,1111122 
DISL,ioos:station:DISL:PPTA:1,2014-12-05T17:30:00Z,30.2791,-87.5561,1.3,8.05,1111122 
DISL,ioos:station:DISL:PPTA:1,2014-12-05T18:00:00Z,30.2791,-87.5561,1.293,7.96,1111122 
DISL,ioos:station:DISL:PPTA:1,2014-12-05T18:30:00Z,30.2791,-87.5561,1.313,7.94,1111122 
DISL,ioos:station:DISL:PPTA:1,2014-12-05T19:00:00Z,30.2791,-87.5561,1.32,7.98,1111122 
DISL,ioos:station:DISL:PPTA:1,2014-12-05T19:30:00Z,30.2791,-87.5561,1.354,7.99,1111122 
DISL,ioos:station:DISL:PPTA:1,2014-12-05T20:00:00Z,30.2791,-87.5561,1.347,8.08,1111122 
DISL,ioos:station:DISL:PPTA:1,2014-12-05T20:30:00Z,30.2791,-87.5561,1.381,8.07,1111122 
DISL,ioos:station:DISL:PPTA:1,2014-12-05T21:00:00Z,30.2791,-87.5561,1.396,8.05,1111122 
DISL,ioos:station:DISL:PPTA:1,2014-12-05T21:30:00Z,30.2791,-87.5561,1.427,8.02,1111122 
DISL,ioos:station:DISL:PPTA:1,2014-12-05T22:00:00Z,30.2791,-87.5561,1.443,8.0,1111122 
DISL,ioos:station:DISL:PPTA:1,2014-12-05T22:30:00Z,30.2791,-87.5561,1.453,7.69,1111122 
DISL,ioos:station:DISL:PPTA:1,2014-12-05T23:00:00Z,30.2791,-87.5561,1.482,7.82,1111122 
DISL,ioos:station:DISL:PPTA:1,2014-12-05T23:30:00Z,30.2791,-87.5561,1.502,7.72,1111122 
DISL,ioos:station:DISL:PPTA:1,2014-12-06T00:00:00Z,30.2791,-87.5561,1.525,7.81,1111122 
DISL,ioos:station:DISL:PPTA:1,2014-12-06T00:30:00Z,30.2791,-87.5561,1.535,7.66,1111122 
DISL,ioos:station:DISL:PPTA:1,2014-12-06T01:00:00Z,30.2791,-87.5561,1.546,7.6,1111122 
DISL,ioos:station:DISL:PPTA:1,2014-12-06T01:30:00Z,30.2791,-87.5561,1.553,7.56,1111122 
DISL,ioos:station:DISL:PPTA:1,2014-12-06T02:00:00Z,30.2791,-87.5561,1.566,7.59,1111122 
DISL,ioos:station:DISL:PPTA:1,2014-12-06T02:30:00Z,30.2791,-87.5561,1.56,7.57,1111122 
DISL,ioos:station:DISL:PPTA:1,2014-12-06T03:00:00Z,30.2791,-87.5561,1.566,7.66,1111122 
DISL,ioos:station:DISL:PPTA:1,2014-12-06T03:30:00Z,30.2791,-87.5561,1.561,7.67,1111122 
DISL,ioos:station:DISL:PPTA:1,2014-12-06T04:00:00Z,30.2791,-87.5561,1.542,7.54,1111122 
DISL,ioos:station:DISL:PPTA:1,2014-12-06T04:30:00Z,30.2791,-87.5561,1.553,7.64,1111122 
DISL,ioos:station:DISL:PPTA:1,2014-12-06T05:00:00Z,30.2791,-87.5561,1.518,7.65,1111122 
DISL,ioos:station:DISL:PPTA:1,2014-12-06T05:30:00Z,30.2791,-87.5561,1.492,7.53,1111122 
DISL,ioos:station:DISL:PPTA:1,2014-12-06T06:00:00Z,30.2791,-87.5561,1.462,7.72,1111122 
DISL,ioos:station:DISL:PPTA:1,2014-12-06T06:30:00Z,30.2791,-87.5561,1.441,7.92,1111122 
DISL,ioos:station:DISL:PPTA:1,2014-12-06T07:00:00Z,30.2791,-87.5561,1.408,7.64,1111122 
DISL,ioos:station:DISL:PPTA:1,2014-12-06T07:30:00Z,30.2791,-87.5561,1.401,7.61,1111122 
DISL,ioos:station:DISL:PPTA:1,2014-12-06T08:00:00Z,30.2791,-87.5561,1.382,7.63,1111122 
DISL,ioos:station:DISL:PPTA:1,2014-12-06T08:30:00Z,30.2791,-87.5561,1.367,7.63,1111122 
DISL,ioos:station:DISL:PPTA:1,2014-12-06T09:00:00Z,30.2791,-87.5561,1.341,7.73,1111122 
DISL,ioos:station:DISL:PPTA:1,2014-12-06T09:30:00Z,30.2791,-87.5561,1.334,7.64,1111122 
DISL,ioos:station:DISL:PPTA:1,2014-12-06T10:00:00Z,30.2791,-87.5561,1.309,7.72,1111122 
DISL,ioos:station:DISL:PPTA:1,2014-12-06T10:30:00Z,30.2791,-87.5561,1.284,7.66,1111122 
DISL,ioos:station:DISL:PPTA:1,2014-12-06T11:00:00Z,30.2791,-87.5561,1.274,7.75,1111122 
DISL,ioos:station:DISL:PPTA:1,2014-12-06T11:30:00Z,30.2791,-87.5561,1.261,7.85,1111122 
DISL,ioos:station:DISL:PPTA:1,2014-12-06T12:00:00Z,30.2791,-87.5561,1.254,8.03,1111122 
DISL,ioos:station:DISL:PPTA:1,2014-12-06T12:30:00Z,30.2791,-87.5561,1.248,7.97,1111122 
DISL,ioos:station:DISL:PPTA:1,2014-12-06T13:00:00Z,30.2791,-87.5561,1.218,8.04,1111122 
DISL,ioos:station:DISL:PPTA:1,2014-12-06T13:30:00Z,30.2791,-87.5561,1.212,8.05,1111122 
DISL,ioos:station:DISL:PPTA:1,2014-12-06T14:00:00Z,30.2791,-87.5561,1.21,8.12,1111122 
DISL,ioos:station:DISL:PPTA:1,2014-12-06T14:30:00Z,30.2791,-87.5561,1.216,8.14,1111122 
DISL,ioos:station:DISL:PPTA:1,2014-12-06T15:00:00Z,30.2791,-87.5561,1.208,8.17,1111122 
DISL,ioos:station:DISL:PPTA:1,2014-12-06T15:30:00Z,30.2791,-87.5561,1.209,8.22,1111122 